[[{"header":{"parameterUnit":"m.s-1","parameterCategory":1,"la1":30.2991,"la2":30.254,"lo1":-89.0895,"lo2":-89.0444,"dy":0.0017,"dx":0.0017,"nx":28,"ny":28,"refTime":"2024-02-20T03:00:00:Z","depth":0,"parameterNumber":2,"parameterNumberName":"U-component_of_WINDS"},"data":[0,0,0,0,0,0,0,0,0,0,0,0,0,0,0,0,0,0,0,0,0,0,0,0,0,0,0,0,0,0,0,0,0,0,0,0,0,0,0,0,0,0,0,0,0,0,0,0,0,0,0,0,0,0,0,0,0,0,1.3637,1.3638,0,1.3719,1.372,1.3721,1.3721,1.372,1.3719,1.3718,1.3801,1.3804,1.3807,0,0,0,0,0,0,0,0,0,0,0,0,0,1.348,1.3483,1.3637,1.3638,1.3639,1.3719,1.372,1.3721,1.3721,1.372,1.3719,1.3717,1.38,1.3803,1.3807,0,0,0,0,0,0,0,0,0,0,0,0,0,1.3554,1.3484,1.3637,1.3649,1.3651,1.3718,1.372,1.3721,1.3721,1.372,1.3718,1.3717,1.3798,1.3803,1.3808,1.3869,0,0,1.3822,1.3824,0,0,0,0,0,0,0,0,1.355,1.356,1.3646,1.3648,1.365,1.3708,1.3695,1.3771,1.3722,1.3695,1.3718,1.3716,1.3771,1.3778,1.3797,1.3872,1.3876,1.3823,1.3826,1.3828,1.3829,0,0,0,0,0,0,0,1.3545,1.3556,1.3669,1.3647,1.365,1.365,1.3658,1.3709,1.3741,1.3697,1.3697,1.3707,1.3772,1.3792,1.3799,1.3877,1.3823,1.3827,1.383,1.3832,1.4006,1.4008,0,0,0,0,0,0,1.3537,1.3552,1.3667,1.3672,1.3595,1.3654,1.3664,1.3691,1.374,1.3746,1.3708,1.3706,1.3785,1.3793,1.3802,1.3875,1.3828,1.3832,1.3835,1.4004,1.4006,1.4008,0,0,0,0,0,0,1.3534,1.3547,1.3664,1.3612,1.3627,1.3658,1.3689,1.3694,1.3714,1.3749,1.3754,1.3723,1.3784,1.3795,1.3852,1.3878,1.3834,1.3839,1.4002,1.4005,1.4007,1.4023,0,0,0,0,0,0,1.3529,1.3546,1.357,1.3612,1.3629,1.3713,1.3691,1.3696,1.3722,1.3721,1.3764,1.377,1.3783,1.3845,1.3856,1.3884,1.3842,1.4,1.4003,1.4007,1.402,1.4026,1.4031,0,0,0,0,0,1.3524,1.3571,1.3571,1.3585,1.366,1.3714,1.3724,1.3739,1.3724,1.3748,1.377,1.3768,1.3874,1.385,1.3864,1.3893,1.3998,1.4002,1.4006,1.4018,1.4025,1.4031,0,0,0,0,0,0,1.3531,1.3577,1.3577,1.364,1.3673,1.3714,1.3745,1.3746,1.3784,1.3781,1.3798,1.3808,1.3864,1.3885,1.3858,1.3954,1.3934,1.3941,1.3938,1.3945,1.395,1.3944,1.3846,0,0,0,0,0,1.354,1.358,1.3618,1.367,1.3687,1.3713,1.3737,1.3746,1.3781,1.3795,1.3821,1.3855,1.3895,1.3922,1.3961,1.4024,1.4033,1.405,1.4056,1.406,1.4065,1.4099,1.4107,1.4021,1.4021,1.4021,0,0,1.3558,1.3588,1.3613,1.3672,1.3699,1.374,1.3725,1.3769,1.3799,1.3801,1.3856,1.3877,1.3916,1.3975,1.4003,1.3994,1.4091,1.4065,1.4068,1.4071,1.4104,1.4112,1.4119,1.4024,1.4024,1.4023,0,0,1.3613,1.364,1.3686,1.3713,1.3754,1.3771,1.3782,1.3823,1.3836,1.3892,1.3894,1.393,1.4,1.4027,1.405,1.4115,1.4114,1.4128,1.4154,1.4187,1.4194,1.42,1.4222,1.4229,1.4133,1.4133,1.4133,0,1.363,1.3693,1.3709,1.3753,1.3779,1.3783,1.3829,1.3854,1.3906,1.3923,1.3912,1.3999,1.4026,1.4091,1.4107,1.4126,1.4138,1.4122,1.4191,1.4198,1.4203,1.4225,1.4233,1.4134,1.4134,1.4134,1.4134,0,1.3712,1.3755,1.3787,1.3837,1.3866,1.3911,1.3933,1.3961,1.3967,1.3985,1.4042,1.4074,1.4119,1.4136,1.4142,1.4202,1.4195,1.4188,1.4168,1.4213,1.4233,1.4241,1.4136,1.4136,1.4135,1.4135,0,0,1.3772,1.383,1.3842,1.3864,1.3909,1.3942,1.3987,1.4032,1.4055,1.409,1.4128,1.4187,1.418,1.4206,1.4216,1.4245,1.4293,1.4234,1.4235,1.4243,1.4359,1.4363,1.4372,1.4293,1.4295,1.4296,1.4355,0,1.3831,1.3911,1.3926,1.3995,1.4035,1.404,1.4079,1.411,1.4128,1.4164,1.4184,1.4225,1.4214,1.423,1.4259,1.4281,1.4316,1.4277,1.4327,1.4328,1.4316,1.4383,1.4388,1.4442,1.4363,1.4365,1.4366,0,1.3909,1.3946,1.4019,1.4059,1.4076,1.4111,1.4152,1.4187,1.4223,1.4234,1.4263,1.427,1.4316,1.4295,1.4358,1.4331,1.4353,1.4367,1.4369,1.4373,1.4349,1.4388,1.446,1.4468,1.4379,1.4378,1.4377,0,1.3944,1.4013,1.4065,1.4084,1.4132,1.4156,1.4177,1.4211,1.4237,1.4273,1.429,1.4331,1.4354,1.4386,1.4403,1.4386,1.4465,1.4445,1.4474,1.4474,1.449,1.4488,1.4565,1.4506,1.4506,1.4506,1.4505,0,1.4007,1.4051,1.4081,1.4113,1.4162,1.418,1.4229,1.4249,1.428,1.4315,1.4322,1.4356,1.4377,1.4414,1.4428,1.4477,1.4488,1.4498,1.45,1.4496,1.4495,1.4509,1.4506,1.4508,1.4507,1.4507,1.4507,0,1.4053,1.4076,1.4133,1.4173,1.4185,1.4219,1.4253,1.4284,1.4303,1.4348,1.4359,1.4388,1.4431,1.4452,1.4506,1.4515,1.4571,1.4572,1.4558,1.4559,1.4587,1.4583,1.4675,1.4687,1.4621,1.4621,1.4622,0,1.4091,1.4125,1.4169,1.4194,1.4215,1.4255,1.4281,1.43,1.4327,1.437,1.4396,1.4439,1.4474,1.4543,1.4568,1.4609,1.461,1.464,1.4616,1.4611,1.4609,1.4606,1.4609,1.4643,1.4644,1.4644,1.4645,0,1.4155,1.4165,1.4202,1.4244,1.4275,1.4308,1.4341,1.4361,1.4385,1.4415,1.4459,1.4486,1.4541,1.4583,1.4626,1.4647,1.465,1.4652,1.4661,1.4656,1.4646,1.465,1.4568,1.465,1.4649,1.4649,1.4649,1.4648,1.4198,1.4228,1.4264,1.4305,1.4332,1.4363,1.4393,1.4416,1.4453,1.4499,1.4508,1.4554,1.4589,1.4646,1.4669,1.4705,1.4698,1.4711,1.4714,1.4717,1.4717,1.4642,1.4713,1.4713,1.4713,1.4713,1.4713,0,1.4261,1.4284,1.4322,1.4368,1.4401,1.4401,1.4438,1.4465,1.4505,1.4538,1.4573,1.4623,1.4664,1.4693,1.4735,1.4758,1.476,1.4768,1.4766,1.4771,1.4721,1.4709,1.4766,1.4766,1.4766,1.4766,1.4766,1.4766,1.4298,1.4348,1.4362,1.4426,1.4449,1.4494,1.4515,1.4543,1.4568,1.4624,1.4659,1.4677,1.4708,1.4752,1.479,1.4797,1.4812,1.482,1.4827,1.478,1.4774,1.4769,1.4757,1.4823,1.4823,1.4873,1.4873,1.4873]},{"header":{"parameterUnit":"m.s-1","parameterCategory":1,"la1":30.2991,"la2":30.254,"lo1":-89.0895,"lo2":-89.0444,"dy":0.0017,"dx":0.0017,"nx":28,"ny":28,"refTime":"2024-02-20T03:00:00:Z","depth":0,"parameterNumber":3,"parameterNumberName":"V-component_of_WINDS"},"data":[0,0,0,0,0,0,0,0,0,0,0,0,0,0,0,0,0,0,0,0,0,0,0,0,0,0,0,0,0,0,0,0,0,0,0,0,0,0,0,0,0,0,0,0,0,0,0,0,0,0,0,0,0,0,0,0,0,0,2.7033,2.7033,0,2.7022,2.7022,2.7022,2.6964,2.6963,2.6961,2.696,2.6949,2.695,2.6951,0,0,0,0,0,0,0,0,0,0,0,0,0,2.7004,2.7005,2.7033,2.7033,2.7033,2.7022,2.7022,2.7022,2.6964,2.6963,2.6961,2.6959,2.6949,2.695,2.6952,0,0,0,0,0,0,0,0,0,0,0,0,0,2.7007,2.7005,2.7033,2.7003,2.7,2.7023,2.7022,2.7022,2.6965,2.6963,2.696,2.6959,2.6949,2.695,2.6952,2.7003,0,0,2.6956,2.6957,0,0,0,0,0,0,0,0,2.7007,2.7008,2.7007,2.7005,2.7002,2.6992,2.7008,2.7016,2.6965,2.6978,2.696,2.6957,2.6965,2.6965,2.6968,2.7002,2.7002,2.6956,2.6957,2.6958,2.6959,0,0,0,0,0,0,0,2.7007,2.7009,2.7029,2.7007,2.7004,2.699,2.6988,2.7009,2.6984,2.6977,2.6973,2.6972,2.6964,2.6967,2.6967,2.7002,2.6956,2.6958,2.6959,2.6959,2.7077,2.7079,0,0,0,0,0,0,2.7011,2.7009,2.7029,2.7029,2.6999,2.6992,2.699,2.6998,2.6983,2.6979,2.6974,2.6969,2.6965,2.6966,2.6967,2.7025,2.6958,2.6959,2.696,2.7075,2.7078,2.708,0,0,0,0,0,0,2.7011,2.7013,2.703,2.7018,2.7018,2.6995,2.7004,2.6998,2.7001,2.6981,2.6976,2.6982,2.6964,2.6965,2.6994,2.7024,2.696,2.6962,2.7072,2.7076,2.7079,2.7143,0,0,0,0,0,0,2.701,2.7014,2.7033,2.7018,2.7019,2.7057,2.7006,2.7,2.7004,2.6998,2.6987,2.6983,2.6962,2.6992,2.6996,2.7025,2.6963,2.707,2.7074,2.7078,2.7138,2.7148,2.7156,0,0,0,0,0,2.7009,2.7051,2.7034,2.7037,2.7043,2.7059,2.706,2.7034,2.7007,2.7026,2.7013,2.6984,2.7021,2.6996,2.6999,2.7029,2.7068,2.7073,2.7078,2.7134,2.7146,2.7156,0,0,0,0,0,0,2.7069,2.7049,2.7029,2.7068,2.7066,2.7049,2.7072,2.7048,2.7053,2.7048,2.7016,2.7014,2.7048,2.7042,2.7015,2.7078,2.7039,2.7045,2.708,2.7092,2.7101,2.7101,2.6964,0,0,0,0,0,2.7087,2.7102,2.7083,2.7119,2.7119,2.7096,2.7102,2.7083,2.7079,2.7078,2.7067,2.7065,2.7076,2.7084,2.7093,2.7137,2.7133,2.716,2.7169,2.7177,2.7182,2.7204,2.7215,2.7097,2.7096,2.7096,0,0,2.7124,2.7114,2.7126,2.7131,2.7127,2.7143,2.7096,2.7115,2.7126,2.7081,2.7108,2.71,2.7096,2.7133,2.7148,2.7128,2.7214,2.7183,2.7189,2.719,2.721,2.7221,2.7231,2.71,2.7099,2.7099,0,0,2.7199,2.7194,2.7222,2.7219,2.7214,2.7199,2.7206,2.7193,2.7186,2.7213,2.7179,2.7193,2.7213,2.7211,2.7212,2.7288,2.7261,2.7292,2.7339,2.7362,2.7371,2.7379,2.7405,2.7415,2.7297,2.7297,2.7297,0,2.7245,2.7268,2.724,2.7262,2.7265,2.7225,2.7254,2.7253,2.7251,2.7254,2.7232,2.7256,2.725,2.7286,2.7304,2.7307,2.7314,2.7292,2.7372,2.738,2.7387,2.7411,2.7421,2.7301,2.73,2.73,2.73,0,2.7324,2.7341,2.7365,2.7364,2.737,2.7395,2.7372,2.7381,2.7362,2.7349,2.7377,2.7369,2.7375,2.7383,2.7364,2.7416,2.7403,2.7377,2.7337,2.7402,2.7424,2.7434,2.7306,2.7305,2.7304,2.7303,0,0,2.7435,2.7419,2.7428,2.7427,2.7419,2.7431,2.7455,2.7461,2.747,2.747,2.7489,2.7507,2.7483,2.7485,2.7466,2.7485,2.7545,2.7456,2.7456,2.7472,2.76,2.7619,2.7631,2.7528,2.7529,2.7531,2.76,0,2.7506,2.7544,2.7521,2.7563,2.7578,2.7541,2.7562,2.7559,2.7548,2.7559,2.7547,2.756,2.7527,2.7528,2.7546,2.7534,2.757,2.7528,2.7544,2.7545,2.7545,2.7642,2.7662,2.7728,2.7609,2.7611,2.7612,0,2.7593,2.7597,2.7641,2.7629,2.7635,2.7654,2.7657,2.7669,2.7665,2.7656,2.7658,2.7635,2.7657,2.7619,2.765,2.7622,2.7627,2.7622,2.7624,2.7624,2.7581,2.7643,2.7749,2.7758,2.7625,2.7624,2.7623,0,2.7668,2.7685,2.7713,2.7713,2.7701,2.7715,2.7711,2.7705,2.771,2.7714,2.7717,2.7724,2.7728,2.7733,2.7712,2.7687,2.7745,2.7706,2.7737,2.7738,2.775,2.7749,2.7857,2.7756,2.7756,2.7756,2.7756,0,2.7748,2.7776,2.7746,2.7763,2.7794,2.7767,2.7798,2.779,2.7785,2.78,2.7769,2.7784,2.7756,2.7768,2.7752,2.7779,2.7781,2.7774,2.7769,2.7776,2.7777,2.7778,2.7772,2.7759,2.7758,2.7757,2.7757,0,2.7836,2.7817,2.7845,2.7832,2.7829,2.7852,2.7841,2.7856,2.7844,2.7863,2.7866,2.7846,2.7859,2.7839,2.7849,2.7838,2.7876,2.7865,2.7877,2.7873,2.7906,2.7902,2.8017,2.803,2.7922,2.7923,2.7924,0,2.7888,2.7908,2.7897,2.7905,2.7903,2.7916,2.7921,2.7896,2.7903,2.7901,2.7917,2.7927,2.7933,2.7956,2.7942,2.795,2.7938,2.7977,2.7939,2.7945,2.7937,2.7935,2.7937,2.7985,2.7986,2.7987,2.7988,0,2.7981,2.7971,2.798,2.7986,2.7993,2.7996,2.7998,2.8006,2.798,2.7989,2.8002,2.8007,2.8018,2.8028,2.8033,2.8028,2.8004,2.8001,2.8008,2.8014,2.802,2.8016,2.7897,2.7998,2.7997,2.7996,2.7995,2.7995,2.8052,2.8068,2.8063,2.8074,2.8072,2.8074,2.8088,2.8077,2.8087,2.8094,2.8079,2.8095,2.8091,2.8095,2.8094,2.8106,2.8088,2.81,2.8102,2.8105,2.811,2.802,2.8107,2.8107,2.8106,2.8106,2.8106,0,2.8142,2.8137,2.8148,2.815,2.8159,2.8136,2.8136,2.8145,2.816,2.8158,2.8165,2.818,2.819,2.8178,2.8186,2.8198,2.8187,2.8201,2.8199,2.8198,2.8125,2.8117,2.821,2.821,2.821,2.821,2.821,2.821,2.819,2.8217,2.8206,2.8232,2.8226,2.8242,2.8244,2.8246,2.8244,2.8262,2.827,2.8262,2.8256,2.8264,2.8272,2.8268,2.8272,2.829,2.8282,2.8214,2.8203,2.8194,2.8186,2.8291,2.8291,2.8353,2.8354,2.8355]}]]